Regional Weather Roundup
Issued by NWS

Home | Current Version | Previous Version | Graphics & Text | Print | Product List | Glossary On
Versions: 1 2 3 4 5 6 7 8 9 10 11 12 13 14 15 16 17 18 19 20 21 22 23 24 25 26 27 28 29 30 31 32 33 34 35 36 37 38 39 40 41 42 43 44 45 46 47 48 49 50
000
ASUS43 KFSD 251002
RWRSD

WEATHER ROUNDUP FOR SOUTH DAKOTA
NATIONAL WEATHER SERVICE SIOUX FALLS SD
400 AM CST SAT NOV 25 2017

NOTE: "FAIR" INDICATES FEW OR NO CLOUDS BELOW 12,000 FEET WITH NO
SIGNIFICANT WEATHER AND/OR OBSTRUCTIONS TO VISIBILITY.


SDZ001>005-009-010-012>017-251100-
NORTHWEST AND NORTH CENTRAL SOUTH DAKOTA

CITY           SKY/WX    TMP DP  RH WIND       PRES   REMARKS
BUFFALO          N/A     28  22  78 W12       29.98R WCI  18
FAITH            N/A     32  25  75 W9        30.04R WCI  24
MOBRIDGE       CLOUDY    26  23  88 N5        29.98R WCI  20
$$

SDZ012>016-024>037-041>051-057-063-072>074-251100-
SOUTHWEST AND SOUTH CENTRAL SOUTH DAKOTA

CITY           SKY/WX    TMP DP  RH WIND       PRES   REMARKS
RAPID CTY ARPT CLEAR     26  18  71 NW5       30.07R WCI  20
PIERRE         CLEAR     31  29  92 W10       30.04R WCI  22
CUSTER         CLEAR     27  17  66 NW7       30.07S WCI  19
ELLSWORTH AFB  CLEAR     28  20  72 NW7       30.06R WCI  20
PHILIP         CLEAR     30  27  88 W10       30.08R WCI  21
PINE RIDGE     CLEAR     19  16  88 CALM      30.09S
SPEARFISH      FAIR      28  21  74 S8        30.07S WCI  20
WINNER         FAIR      36  29  75 SW9       30.07R
$$

SDZ004>011-016>023-039-040-251100-
NORTHEAST SOUTH DAKOTA

CITY           SKY/WX    TMP DP  RH WIND       PRES   REMARKS
ABERDEEN       CLEAR     27  25  92 NW8       30.00R WCI  19
WATERTOWN      CLEAR     30  26  85 W9        29.96R WCI  22
BROOKINGS      CLEAR     31  28  89 W7        29.98R WCI  24
SISSETON         N/A     32  29  88 NW9       29.96R WCI  24
$$

SDZ017-020-022-023-036>040-048>070-251100-
SOUTHEAST SOUTH DAKOTA

CITY           SKY/WX    TMP DP  RH WIND       PRES   REMARKS
SIOUX FALLS    CLEAR     33  30  88 W6        29.99S WCI  28
HURON          CLEAR     29  26  89 NW3       30.00R
CHAMBERLAIN    CLEAR     33  32  95 W6        30.05R WCI  27
MITCHELL       CLEAR     34  30  85 W9        30.02R WCI  27
YANKTON        CLEAR     36  31  82 SW5       30.03S
$$

ABBREVIATIONS USED IN REMARKS
   TC - TEMPERATURE IN CELSIUS
  WCI - WIND CHILL INDEX
   HX - HEAT INDEX
  VSB - VISIBILITY





USA.gov is the U.S. government's official web portal to all federal, state and local government web resources and services.